Location: Windsor
(43.2292°N, 89.3015°W)
Time: 10:02:52
(UTC+00:00)

Tiros 1 - Pass Details

Date: 28 May 2022
Orbit: 629 x 663 km, 48.4° (Epoch: 04 July)

Event Time Altitude Azimuth Distance (km) Brightness Sun altitude
Exits shadow 08:14:30 - 280° (W) 2,187 9.6 -17.7°
Reaches altitude 10° 08:14:58 10° 282° (WNW) 2,013 9.5 -17.7°
Maximum altitude 08:19:25 45° 355° (N) 874 8.2 -17.2°
Drops below altitude 10° 08:23:55 10° 68° (ENE) 2,032 10.6 -16.7°
Sets 08:26:21 0° 75° (ENE) 2,948 11.4 -16.5°
